EW5713 Weather Reports


Display with metric or nautical units.
time (UTC)temp
F
wind
direction
speed
MPH
gust
MPH
rain 1hr
in
rain 24hr
in
rain mn
in
humidity
%
barometer
mb
20210728180303 83 52 1.0 2.0 0.00 0.76 0.00 69 1019.5
20210728175803 83 52 1.0 3.0 0.00 0.76 0.00 64 1019.5
20210728175305 83 31 2.0 3.0 0.00 0.76 0.00 62 1019.5
20210728174803 83 34 2.0 3.0 0.00 0.76 0.00 66 1019.4
20210728174303 83 76 1.0 2.0 0.00 0.76 0.00 67 1019.5
20210728173803 82 76 1.0 2.0 0.00 0.76 0.00 68 1019.5
20210728173303 82 61 1.0 3.0 0.00 0.76 0.00 68 1019.6
20210728172803 82 61 1.0 3.0 0.00 0.76 0.00 72 1019.9
20210728172305 82 63 1.0 3.0 0.00 0.76 0.00 71 1020.0
20210728171803 82 63 1.0 2.0 0.00 0.76 0.00 69 1020.0
20210728171302 82 63 1.0 2.0 0.00 0.76 0.00 73 1020.0
20210728170803 82 63 1.0 2.0 0.00 0.76 0.00 72 1020.1
20210728170303 81 63 2.0 3.0 0.00 0.76 0.00 71 1020.3
20210728165803 81 43 2.0 6.0 0.00 0.76 0.00 70 1020.3
20210728165305 81 13 1.0 3.0 0.00 0.76 0.00 70 1020.3
20210728164803 81 13 1.0 3.0 0.00 0.76 0.00 71 1020.3
20210728164303 81 13 2.0 3.0 0.00 0.76 0.00 72 1020.2
20210728163803 81 18 2.0 5.0 0.00 0.76 0.00 71 1020.3
20210728163303 80 37 1.0 3.0 0.00 0.76 0.00 74 1020.1
20210728162803 80 37 1.0 5.0 0.00 0.76 0.00 73 1020.1
20210728162305 80 22 1.0 3.0 0.00 0.76 0.00 76 1020.3
20210728161803 80 22 1.0 2.0 0.00 0.76 0.00 77 1020.3
20210728161303 79 22 1.0 2.0 0.00 0.76 0.00 76 1020.4
20210728160803 79 22 1.0 3.0 0.00 0.76 0.00 78 1020.6
20210728160303 79 355 2.0 3.0 0.00 0.76 0.00 80 1020.6
20210728155804 79 355 2.0 3.0 0.00 0.76 0.00 81 1020.6
20210728155305 79 34 2.0 3.0 0.00 0.76 0.00 77 1020.5
20210728154803 78 34 1.0 3.0 0.00 0.76 0.00 80 1020.5
20210728154303 78 35 1.0 3.0 0.00 0.76 0.00 79 1020.6
20210728153803 78 30 1.0 3.0 0.00 0.76 0.00 80 1020.6
20210728153303 77 30 2.0 6.0 0.00 0.76 0.00 80 1020.6
20210728152803 77 32 1.0 3.0 0.00 0.76 0.00 81 1020.6
20210728152305 76 33 1.0 3.0 0.00 0.76 0.00 83 1020.5
20210728151803 76 346 1.0 2.0 0.00 0.76 0.00 87 1020.5
20210728151303 76 346 1.0 2.0 0.00 0.76 0.00 86 1020.5
20210728150803 76 346 1.0 3.0 0.00 0.76 0.00 88 1020.6
20210728150303 75 346 1.0 2.0 0.00 0.76 0.00 89 1020.6
20210728145803 75 346 1.0 2.0 0.00 0.76 0.00 89 1020.5
20210728145305 74 346 1.0 2.0 0.00 0.76 0.00 90 1020.3
20210728144803 74 346 1.0 2.0 0.00 0.76 0.00 92 1020.3
20210728144303 73 346 1.0 3.0 0.00 0.76 0.00 92 1020.3
20210728143803 73 340 0.0 2.0 0.00 0.76 0.00 94 1020.3
20210728143303 72 340 1.0 2.0 0.00 0.76 0.00 94 1020.3
20210728142803 72 340 1.0 2.0 0.00 0.76 0.00 97 1020.2
20210728142305 71 340 1.0 1.0 0.00 0.76 0.00 98 1020.2
20210728141803 71 340 1.0 2.0 0.00 0.76 0.00 98 1020.2
20210728141303 71 340 1.0 3.0 0.00 0.76 0.00 98 1020.3
20210728140802 71 340 1.0 2.0 0.00 0.76 0.00 98 1020.4
20210728140303 71 340 1.0 2.0 0.00 0.76 0.00 98 1020.4
20210728135803 70 340 1.0 2.0 0.00 0.76 0.00 98 1020.5
20210728135305 70 340 1.0 2.0 0.00 0.76 0.00 98 1020.7
20210728134804 70 340 1.0 2.0 0.00 0.76 0.00 98 1020.7
20210728134303 70 340 1.0 2.0 0.00 0.76 0.00 98 1020.7
20210728133803 70 340 1.0 2.0 0.00 0.76 0.00 98 1020.7
20210728133304 70 340 1.0 2.0 0.00 0.76 0.00 98 1020.7
20210728132803 70 340 1.0 2.0 0.00 0.76 0.00 98 1020.7
20210728132306 69 340 1.0 2.0 0.00 0.76 0.00 98 1020.8
20210728131804 69 340 1.0 2.0 0.00 0.76 0.00 98 1020.8
20210728131304 69 340 1.0 1.0 0.00 0.76 0.00 98 1020.7
20210728130803 69 340 1.0 1.0 0.00 0.76 0.00 98 1020.6
20210728130303 69 340 1.0 2.0 0.00 0.76 0.00 98 1020.6
20210728125803 69 340 1.0 2.0 0.00 0.76 0.00 98 1020.7
20210728125305 68 340 1.0 2.0 0.00 0.76 0.00 98 1020.6
20210728124804 68 340 1.0 1.0 0.00 0.76 0.00 98 1020.6
20210728124303 68 340 1.0 1.0 0.00 0.76 0.00 98 1020.6
20210728123803 68 340 1.0 1.0 0.00 0.76 0.00 98 1020.6
20210728123303 68 340 1.0 1.0 0.00 0.76 0.00 98 1020.5
20210728122803 68 340 1.0 2.0 0.00 0.76 0.00 98 1020.5
20210728122305 68 340 1.0 2.0 0.00 0.76 0.00 98 1020.5
20210728121803 68 340 1.0 2.0 0.00 0.76 0.00 98 1020.5
20210728121303 68 340 1.0 1.0 0.00 0.76 0.00 98 1020.4
20210728120803 68 340 1.0 1.0 0.00 0.76 0.00 98 1020.3
20210728120303 68 340 1.0 1.0 0.00 0.76 0.00 98 1020.2
20210728115803 68 340 1.0 1.0 0.00 0.76 0.00 98 1020.2
20210728115305 68 340 1.0 1.0 0.00 0.76 0.00 98 1020.2
20210728114804 68 340 1.0 2.0 0.00 0.76 0.00 98 1020.2
20210728114303 68 340 1.0 1.0 0.00 0.76 0.00 98 1020.1
20210728113803 68 340 1.0 2.0 0.00 0.76 0.00 98 1020.1
20210728113304 68 340 1.0 2.0 0.00 0.76 0.00 98 1020.1
20210728112804 68 340 1.0 2.0 0.00 0.76 0.00 98 1020.1
20210728112305 68 340 1.0 1.0 0.00 0.76 0.00 98 1020.1
20210728111803 68 340 1.0 2.0 0.00 0.76 0.00 98 1020.1
20210728111303 68 340 1.0 1.0 0.00 0.76 0.00 98 1020.1
20210728110803 68 340 1.0 1.0 0.00 0.76 0.00 97 1020.0
20210728110303 68 340 1.0 1.0 0.00 0.76 0.00 97 1020.1
20210728105803 68 340 1.0 2.0 0.00 0.76 0.00 97 1020.1
20210728105305 68 340 1.0 2.0 0.00 0.76 0.00 97 1020.1
20210728104804 68 340 0.0 1.0 0.00 0.76 0.00 97 1020.0
20210728104303 68 340 1.0 2.0 0.00 0.76 0.00 97 1020.0
20210728103804 68 340 1.0 1.0 0.00 0.76 0.00 97 1019.9
20210728103304 68 340 0.0 1.0 0.00 0.76 0.00 97 1019.9
20210728102804 68 340 0.0 0.0 0.00 0.76 0.00 97 1019.8
20210728102306 68 340 0.0 0.0 0.00 0.76 0.00 97 1019.8
20210728101803 68 340 0.0 1.0 0.00 0.76 0.00 97 1019.7
20210728101304 68 340 0.0 0.0 0.00 0.76 0.00 97 1019.6
20210728100803 68 340 0.0 0.0 0.00 0.76 0.00 97 1019.6
20210728100304 68 340 0.0 0.0 0.00 0.76 0.00 97 1019.5
20210728095803 68 340 0.0 0.0 0.00 0.76 0.00 97 1019.4
20210728095305 68 340 0.0 1.0 0.00 0.76 0.00 97 1019.3
20210728094803 68 340 1.0 1.0 0.00 0.76 0.00 97 1019.4
20210728094304 68 340 0.0 1.0 0.00 0.76 0.00 97 1019.3
20210728093803 68 340 0.0 0.0 0.00 0.76 0.00 97 1019.5
20210728093304 68 340 0.0 0.0 0.00 0.76 0.00 97 1019.5
20210728092803 68 340 0.0 0.0 0.00 0.76 0.00 97 1019.5
20210728092306 69 340 0.0 1.0 0.00 0.76 0.00 97 1019.6
20210728091804 69 340 0.0 0.0 0.00 0.76 0.00 97 1019.5
20210728091304 69 340 0.0 0.0 0.00 0.76 0.00 97 1019.6
20210728090803 69 340 0.0 1.0 0.00 0.76 0.00 97 1019.5
20210728090304 69 340 0.0 1.0 0.00 0.76 0.00 97 1019.6
20210728085804 69 340 0.0 1.0 0.00 0.76 0.00 97 1019.5
20210728085306 69 340 0.0 1.0 0.00 0.76 0.00 97 1019.5
20210728084804 69 340 0.0 1.0 0.00 0.76 0.00 97 1019.4
20210728084303 69 340 1.0 2.0 0.00 0.76 0.00 97 1019.4
20210728083804 69 340 0.0 1.0 0.00 0.76 0.00 97 1019.5
20210728083303 69 340 0.0 2.0 0.00 0.76 0.00 97 1019.5
20210728082803 69 340 1.0 1.0 0.00 0.76 0.00 97 1019.6
20210728082306 69 340 0.0 1.0 0.00 0.76 0.00 97 1019.4
20210728081803 69 340 1.0 1.0 0.00 0.76 0.00 97 1019.5
20210728081304 69 340 1.0 2.0 0.00 0.76 0.00 97 1019.5
20210728080803 69 340 1.0 2.0 0.00 0.76 0.00 97 1019.5
20210728080303 69 340 1.0 2.0 0.00 0.76 0.00 97 1019.5
20210728075804 69 340 1.0 2.0 0.00 0.76 0.00 97 1019.6
20210728075308 69 340 1.0 2.0 0.00 0.76 0.00 97 1019.7
20210728074804 69 340 1.0 2.0 0.00 0.76 0.00 97 1019.7
20210728074304 69 340 1.0 2.0 0.00 0.76 0.00 97 1019.8
20210728073804 69 340 1.0 1.0 0.00 0.76 0.00 97 1019.9
20210728073303 69 340 0.0 1.0 0.00 0.76 0.00 97 1019.9
20210728072803 69 340 0.0 1.0 0.00 0.76 0.00 97 1019.8
20210728072306 69 340 1.0 1.0 0.00 0.76 0.00 97 1019.8
20210728071804 69 340 0.0 1.0 0.00 0.76 0.00 97 1019.8
20210728071304 69 340 1.0 2.0 0.00 0.76 0.00 97 1019.7
20210728070803 69 340 0.0 0.0 0.00 0.76 0.00 96 1019.7
20210728070303 69 340 0.0 1.0 0.00 0.76 0.00 96 1019.6
20210728065803 69 340 1.0 1.0 0.00 0.76 0.00 96 1019.6
20210728065306 69 340 1.0 1.0 0.00 0.76 0.00 96 1019.6
20210728064803 69 340 1.0 2.0 0.00 0.76 0.00 96 1019.5
20210728064304 70 340 1.0 2.0 0.00 0.76 0.00 96 1019.6
20210728063803 70 340 1.0 1.0 0.00 0.76 0.00 96 1019.5
20210728063303 70 340 0.0 1.0 0.00 0.76 0.00 96 1019.5
20210728062803 70 340 0.0 0.0 0.00 0.76 0.00 96 1019.5
20210728062305 70 340 0.0 0.0 0.00 0.76 0.00 96 1019.5
20210728061803 70 340 0.0 1.0 0.00 0.76 0.00 96 1019.6
20210728061304 70 340 1.0 2.0 0.00 0.76 0.00 96 1019.5
20210728060803 70 340 1.0 2.0 0.00 0.76 0.00 96 1019.4
20210728060303 70 340 1.0 2.0 0.00 0.76 0.00 95 1019.4
20210728055803 70 340 0.0 0.0 0.00 0.76 0.00 95 1019.4
20210728055306 70 340 0.0 0.0 0.00 0.76 0.00 95 1019.4
20210728054803 70 340 0.0 0.0 0.00 0.76 0.00 96 1019.4
20210728054304 70 340 0.0 0.0 0.00 0.76 0.00 95 1019.3
20210728053804 70 340 0.0 0.0 0.00 0.76 0.00 95 1019.4
20210728053304 70 340 0.0 0.0 0.00 0.76 0.00 95 1019.5
20210728052804 71 340 0.0 1.0 0.00 0.76 0.00 95 1019.5
20210728052305 71 340 1.0 2.0 0.00 0.76 0.00 95 1019.5
20210728051804 71 340 0.0 1.0 0.00 0.76 0.00 95 1019.7
20210728051303 71 340 1.0 2.0 0.00 0.76 0.00 95 1019.6
20210728050804 71 340 1.0 2.0 0.00 0.76 0.00 96 1019.6
20210728050304 70 340 1.0 2.0 0.00 0.76 0.00 96 1019.6
20210728045804 70 340 1.0 2.0 0.00 0.76 0.00 96 1019.6
20210728045305 70 340 1.0 2.0 0.00 0.76 0.00 96 1019.6
20210728044803 70 340 1.0 1.0 0.00 0.76 0.00 96 1019.6
20210728044303 70 340 1.0 2.0 0.00 0.76 0.00 96 1019.6
20210728043804 70 340 1.0 2.0 0.00 0.76 0.00 96 1019.6
20210728043304 70 340 1.0 2.0 0.00 0.76 0.00 96 1019.6
20210728042804 70 340 1.0 2.0 0.00 0.76 0.00 96 1019.7
20210728042306 70 340 1.0 2.0 0.00 0.76 0.00 96 1019.7
20210728041804 70 339 1.0 2.0 0.00 0.76 0.00 96 1019.7
20210728041304 70 339 1.0 2.0 0.00 0.76 0.00 96 1019.7
20210728040811 70 339 1.0 2.0 0.00 0.76 0.00 96 1019.6
20210728040304 71 339 1.0 2.0 0.00 0.76 0.00 96 1019.6
20210728035804 70 339 1.0 2.0 0.00 0.76 0.38 95 1019.5
20210728035305 71 339 1.0 3.0 0.00 0.76 0.38 95 1019.6
20210728034804 71 339 1.0 3.0 0.00 0.76 0.38 95 1019.7
20210728034304 71 339 0.0 2.0 0.00 0.76 0.38 95 1019.7
20210728033805 71 339 0.0 2.0 0.00 0.76 0.38 95 1019.8
20210728033307 71 339 1.0 2.0 0.00 0.76 0.38 95 1020.0
20210728032804 71 339 0.0 1.0 0.00 0.76 0.38 95 1020.1
20210728032305 71 339 1.0 2.0 0.00 0.76 0.38 95 1020.1
20210728031804 71 339 1.0 2.0 0.00 0.76 0.38 95 1020.0
20210728031305 71 339 0.0 1.0 0.00 0.76 0.38 95 1020.0
20210728030804 71 339 1.0 2.0 0.00 0.76 0.38 95 1019.9
20210728030304 71 339 1.0 2.0 0.00 0.76 0.38 95 1019.8
20210728025803 71 339 1.0 2.0 0.00 0.76 0.38 95 1019.8
20210728025306 71 339 0.0 2.0 0.00 0.76 0.38 95 1019.7
20210728024804 71 339 1.0 2.0 0.00 0.76 0.38 95 1019.7
20210728024304 71 339 1.0 2.0 0.00 0.76 0.38 95 1019.8
20210728023804 71 339 1.0 2.0 0.00 0.76 0.38 95 1019.8
20210728023304 71 339 1.0 2.0 0.00 0.76 0.38 95 1019.8
20210728022804 71 339 0.0 1.0 0.00 0.76 0.38 95 1019.9
20210728022305 71 339 1.0 2.0 0.00 0.76 0.38 95 1019.8
20210728021804 71 339 1.0 3.0 0.00 0.76 0.38 95 1020.0
20210728021304 71 242 1.0 3.0 0.00 0.76 0.38 95 1019.9
20210728020803 71 124 1.0 2.0 0.00 0.76 0.38 95 1019.9
20210728020304 71 124 2.0 3.0 0.00 0.76 0.38 95 1019.9
20210728015803 71 124 1.0 2.0 0.00 0.76 0.38 95 1019.9
20210728015306 71 124 1.0 3.0 0.00 0.76 0.38 95 1019.8
20210728014804 71 124 2.0 3.0 0.00 0.76 0.38 95 1019.6
20210728014304 71 124 2.0 3.0 0.00 0.76 0.38 95 1019.4
20210728013804 71 124 1.0 2.0 0.00 0.76 0.38 95 1019.5
20210728013303 71 124 1.0 2.0 0.00 0.76 0.38 94 1019.6
20210728012804 71 124 1.0 2.0 0.00 0.76 0.38 95 1019.5
20210728012306 70 124 1.0 2.0 0.00 0.76 0.38 95 1019.4
20210728011804 70 124 2.0 3.0 0.00 0.76 0.38 95 1019.2
20210728011304 70 124 2.0 3.0 0.00 0.76 0.38 95 1019.3
20210728010804 70 124 2.0 3.0 0.00 0.76 0.38 95 1019.2
20210728010304 70 124 2.0 3.0 0.00 0.76 0.38 95 1019.3
20210728005804 70 124 2.0 3.0 0.00 0.76 0.38 95 1019.4
20210728005305 70 124 1.0 3.0 0.00 0.76 0.38 95 1019.4
20210728004804 70 124 2.0 3.0 0.00 0.76 0.38 95 1019.5
20210728004304 70 124 2.0 3.0 0.00 0.76 0.38 95 1019.2
20210728003804 70 124 2.0 3.0 0.00 0.76 0.38 95 1019.2
20210728003304 70 124 2.0 3.0 0.00 0.76 0.38 95 1019.1
20210728002804 70 124 2.0 3.0 0.00 0.76 0.38 95 1019.1
20210728002305 70 124 2.0 3.0 0.00 0.76 0.38 95 1019.3
20210728001804 70 124 2.0 3.0 0.38 0.76 0.38 95 1019.3
20210728001304 70 124 2.0 3.0 0.38 0.76 0.38 95 1019.2
20210728000804 71 124 2.0 2.0 0.38 0.76 0.38 95 1019.2
20210728000305 71 124 2.0 3.0 0.38 0.76 0.38 95 1019.2
20210727235804 71 124 2.0 3.0 0.38 0.76 0.38 95 1019.1
20210727235305 71 124 1.0 2.0 0.38 0.76 0.38 95 1018.9
20210727234804 71 124 2.0 2.0 0.38 0.76 0.38 95 1018.8
20210727234304 71 124 1.0 2.0 0.38 0.76 0.38 95 1018.6
20210727233804 71 124 2.0 3.0 0.38 0.76 0.38 94 1018.5
20210727233304 71 124 1.0 2.0 0.38 0.76 0.38 96 1018.5
20210727232804 71 124 2.0 2.0 0.38 0.76 0.38 96 1018.4
20210727232306 71 124 1.0 2.0 0.38 0.76 0.38 96 1018.4
20210727225804 70 118 2.0 3.0 0.38 0.38 0.38 95 1017.9
20210727225305 69 111 2.0 3.0 0.38 0.38 0.38 95 1017.7
20210727224804 69 99 2.0 3.0 0.38 0.38 0.38 94 1017.8
20210727224304 69 129 3.0 6.0 0.37 0.37 0.37 91 1017.9
20210727223803 71 97 3.0 6.0 0.36 0.36 0.36 91 1017.9
20210727223304 72 84 3.0 7.0 0.33 0.33 0.33 86 1018.6
20210727222804 73 105 2.0 9.0 0.15 0.15 0.15 87 1018.9
20210727222306 74 59 5.0 10.0 0.09 0.09 0.09 87 1018.7
20210727221804 75 51 2.0 5.0 0.01 0.01 0.01 84 1018.7
20210727221302 76 54 2.0 3.0 0.00 0.00 0.00 81 1018.5
20210727220803 77 111 2.0 3.0 0.00 0.00 0.00 76 1018.5
20210727220302 78 60 2.0 5.0 0.00 0.00 0.00 75 1018.3
20210727215802 79 53 2.0 6.0 0.00 0.00 0.00 73 1018.3
20210727215305 80 61 2.0 6.0 0.00 0.00 0.00 70 1018.4
20210727214802 80 103 1.0 6.0 0.00 0.01 0.00 72 1018.4
20210727214302 81 103 1.0 3.0 0.00 0.01 0.00 74 1018.4
20210727213802 80 114 1.0 3.0 0.00 0.01 0.00 74 1018.3
20210727213303 80 136 2.0 3.0 0.00 0.01 0.00 73 1018.1
20210727212803 80 136 2.0 3.0 0.00 0.01 0.00 72 1018.1
20210727212305 79 114 1.0 3.0 0.00 0.01 0.00 75 1018.0
20210727211803 79 147 2.0 3.0 0.00 0.01 0.00 73 1018.0
20210727211302 79 196 1.0 3.0 0.00 0.01 0.00 71 1018.0
20210727210802 78 134 0.0 2.0 0.00 0.01 0.00 71 1017.9
20210727210302 78 134 1.0 3.0 0.00 0.01 0.00 72 1018.1
20210727205803 79 27 1.0 3.0 0.00 0.01 0.00 71 1018.1
20210727205305 79 26 1.0 3.0 0.00 0.01 0.00 72 1018.2
20210727204802 79 268 2.0 6.0 0.00 0.01 0.00 73 1018.1
20210727204302 80 340 2.0 3.0 0.00 0.03 0.00 73 1018.0
20210727203802 80 93 1.0 3.0 0.00 0.11 0.00 72 1017.9
20210727203302 81 30 1.0 5.0 0.00 0.18 0.00 72 1017.9
20210727202803 81 24 2.0 7.0 0.00 0.18 0.00 71 1017.9
20210727202305 82 19 1.0 3.0 0.00 0.18 0.00 71 1017.9
20210727201802 82 55 0.0 3.0 0.00 0.18 0.00 73 1018.0
20210727201302 83 56 1.0 3.0 0.00 0.18 0.00 75 1017.9
20210727200802 84 56 1.0 2.0 0.00 0.18 0.00 71 1017.8
20210727200303 84 56 1.0 2.0 0.00 0.18 0.00 70 1017.8
20210727195803 85 56 0.0 1.0 0.00 0.18 0.00 70 1017.9
20210727195305 85 56 0.0 3.0 0.00 0.18 0.00 67 1017.9
20210727194802 85 56 0.0 2.0 0.00 0.18 0.00 67 1018.0
20210727194302 85 56 1.0 3.0 0.00 0.18 0.00 65 1018.0
20210727193802 85 56 1.0 2.0 0.00 0.18 0.00 67 1018.1
20210727193303 86 56 1.0 2.0 0.00 0.18 0.00 64 1018.1
20210727192802 85 54 2.0 5.0 0.00 0.18 0.00 65 1018.1
20210727192306 86 194 1.0 3.0 0.00 0.18 0.00 67 1018.2
20210727191803 86 28 1.0 2.0 0.00 0.18 0.00 70 1018.5
20210727191302 86 28 1.0 3.0 0.00 0.18 0.00 66 1018.5
20210727190802 86 309 2.0 3.0 0.00 0.18 0.00 65 1018.5
20210727190302 86 229 0.0 2.0 0.00 0.18 0.00 66 1018.5
20210727185803 85 229 2.0 3.0 0.00 0.18 0.00 65 1018.6
20210727185305 85 213 1.0 2.0 0.00 0.18 0.00 67 1018.7
20210727184803 85 213 1.0 2.0 0.00 0.18 0.00 68 1018.8
20210727184303 85 213 0.0 2.0 0.00 0.18 0.00 67 1018.9
20210727183803 85 218 1.0 3.0 0.00 0.18 0.00 69 1018.8
20210727183303 84 286 1.0 2.0 0.00 0.18 0.00 73 1018.8
20210727182803 84 286 1.0 3.0 0.00 0.18 0.00 69 1018.7
20210727182305 84 279 1.0 3.0 0.00 0.18 0.00 67 1018.8
20210727181802 84 279 1.0 3.0 0.00 0.18 0.00 67 1018.8
20210727181303 84 225 1.0 3.0 0.00 0.18 0.00 70 1018.9
20210727180803 84 219 1.0 2.0 0.00 0.18 0.00 71 1019.0